Year,Month,Day,Hour,Minute,Value (Times are PST for temperature in C)
2014,10,19,00,00,13.60
2014,10,19,00,01,13.60
2014,10,19,00,02,13.60
2014,10,19,00,03,13.60
2014,10,19,00,04,13.60
2014,10,19,00,05,13.60
2014,10,19,00,06,13.60
2014,10,19,00,07,13.60
2014,10,19,00,08,13.60
2014,10,19,00,09,13.60
2014,10,19,00,10,13.60
2014,10,19,00,11,13.60
2014,10,19,00,12,13.60
2014,10,19,00,13,13.70
2014,10,19,00,14,13.70
2014,10,19,00,15,13.60
2014,10,19,00,16,13.70
2014,10,19,00,17,13.60
2014,10,19,00,18,13.60
2014,10,19,00,19,13.60
2014,10,19,00,20,13.60
2014,10,19,00,21,13.60
2014,10,19,00,22,13.60
2014,10,19,00,23,13.60
2014,10,19,00,24,13.60
2014,10,19,00,25,13.60
2014,10,19,00,26,13.60
2014,10,19,00,27,13.60
2014,10,19,00,28,13.60
2014,10,19,00,29,13.60
2014,10,19,00,30,13.70
2014,10,19,00,31,13.70
2014,10,19,00,32,13.80
2014,10,19,00,33,13.80
2014,10,19,00,34,13.80
2014,10,19,00,35,13.80
2014,10,19,00,36,13.90
2014,10,19,00,37,13.90
2014,10,19,00,38,13.90
2014,10,19,00,39,13.90
2014,10,19,00,40,14.00
2014,10,19,00,41,14.00
2014,10,19,00,42,14.10
2014,10,19,00,43,14.10
2014,10,19,00,44,14.10
2014,10,19,00,45,14.10
2014,10,19,00,46,14.20
2014,10,19,00,47,14.20
2014,10,19,00,48,14.20
2014,10,19,00,49,14.20
2014,10,19,00,50,14.20
2014,10,19,00,51,14.30
2014,10,19,00,52,14.30
2014,10,19,00,53,14.30
2014,10,19,00,54,14.30
2014,10,19,00,55,14.30
2014,10,19,00,56,14.30
2014,10,19,00,57,14.30
2014,10,19,00,58,14.30
2014,10,19,00,59,14.30
2014,10,19,01,00,14.40
2014,10,19,01,01,14.30
2014,10,19,01,02,14.40
2014,10,19,01,03,14.40
2014,10,19,01,04,14.40
2014,10,19,01,05,14.40
2014,10,19,01,06,14.40
2014,10,19,01,07,14.40
2014,10,19,01,08,14.40
2014,10,19,01,09,14.40
2014,10,19,01,10,14.40
2014,10,19,01,11,14.40
2014,10,19,01,12,14.30
2014,10,19,01,13,14.30
2014,10,19,01,14,14.30
2014,10,19,01,15,14.30
2014,10,19,01,16,14.30
2014,10,19,01,17,14.30
2014,10,19,01,18,14.30
2014,10,19,01,19,14.30
2014,10,19,01,20,14.30
2014,10,19,01,21,14.30
2014,10,19,01,22,14.30
2014,10,19,01,23,14.30
2014,10,19,01,24,14.30
2014,10,19,01,25,14.30
2014,10,19,01,26,14.30
2014,10,19,01,27,14.30
2014,10,19,01,28,14.30
2014,10,19,01,29,14.30
2014,10,19,01,30,14.30
2014,10,19,01,31,14.30
2014,10,19,01,32,14.30
2014,10,19,01,33,14.30
2014,10,19,01,34,14.30
2014,10,19,01,35,14.30
2014,10,19,01,36,14.30
2014,10,19,01,37,14.30
2014,10,19,01,38,14.30
2014,10,19,01,39,14.30
2014,10,19,01,40,14.30
2014,10,19,01,41,14.30
2014,10,19,01,42,14.30
2014,10,19,01,43,14.40
2014,10,19,01,44,14.40
2014,10,19,01,45,14.40
2014,10,19,01,46,14.40
2014,10,19,01,47,14.40
2014,10,19,01,48,14.40
2014,10,19,01,49,14.40
2014,10,19,01,50,14.40
2014,10,19,01,51,14.40
2014,10,19,01,52,14.40
2014,10,19,01,53,14.40
2014,10,19,01,54,14.40
2014,10,19,01,55,14.40
2014,10,19,01,56,14.40
2014,10,19,01,57,14.40
2014,10,19,01,58,14.40
2014,10,19,01,59,14.40
2014,10,19,02,00,14.40
2014,10,19,02,01,14.40
2014,10,19,02,02,14.40
2014,10,19,02,03,14.40
2014,10,19,02,04,14.40
2014,10,19,02,05,14.40
2014,10,19,02,06,14.40
2014,10,19,02,07,14.40
2014,10,19,02,08,14.40
2014,10,19,02,09,14.40
2014,10,19,02,10,14.40
2014,10,19,02,11,14.40
2014,10,19,02,12,14.40
2014,10,19,02,13,14.40
2014,10,19,02,14,14.40
2014,10,19,02,15,14.40
2014,10,19,02,16,14.40
2014,10,19,02,17,14.50
2014,10,19,02,18,14.50
2014,10,19,02,19,14.50
2014,10,19,02,20,14.50
2014,10,19,02,21,14.50
2014,10,19,02,22,14.50
2014,10,19,02,23,14.50
2014,10,19,02,24,14.60
2014,10,19,02,25,14.60
2014,10,19,02,26,14.60
2014,10,19,02,27,14.60
2014,10,19,02,28,14.60
2014,10,19,02,29,14.60
2014,10,19,02,30,14.60
2014,10,19,02,31,14.70
2014,10,19,02,32,14.70
2014,10,19,02,33,14.70
2014,10,19,02,34,14.70
2014,10,19,02,35,14.70
2014,10,19,02,36,14.70
2014,10,19,02,37,14.70
2014,10,19,02,38,14.80
2014,10,19,02,39,14.80
2014,10,19,02,40,14.80
2014,10,19,02,41,14.70
2014,10,19,02,42,14.70
2014,10,19,02,43,14.70
2014,10,19,02,44,14.70
2014,10,19,02,45,14.70
2014,10,19,02,46,14.60
2014,10,19,02,47,14.60
2014,10,19,02,48,14.60
2014,10,19,02,49,14.60
2014,10,19,02,50,14.50
2014,10,19,02,51,14.50
2014,10,19,02,52,14.50
2014,10,19,02,53,14.50
2014,10,19,02,54,14.50
2014,10,19,02,55,14.40
2014,10,19,02,56,14.40
2014,10,19,02,57,14.40
2014,10,19,02,58,14.40
2014,10,19,02,59,14.40
2014,10,19,03,00,14.40
2014,10,19,03,01,14.40
2014,10,19,03,02,14.40
2014,10,19,03,03,14.40
2014,10,19,03,04,14.40
2014,10,19,03,05,14.30
2014,10,19,03,06,14.30
2014,10,19,03,07,14.30
2014,10,19,03,08,14.30
2014,10,19,03,09,14.30
2014,10,19,03,10,14.30
2014,10,19,03,11,14.30
2014,10,19,03,12,14.30
2014,10,19,03,13,14.30
2014,10,19,03,14,14.30
2014,10,19,03,15,14.30
2014,10,19,03,16,14.30
2014,10,19,03,17,14.30
2014,10,19,03,18,14.30
2014,10,19,03,19,14.30
2014,10,19,03,20,14.30
2014,10,19,03,21,14.30
2014,10,19,03,22,14.30
2014,10,19,03,23,14.30
2014,10,19,03,24,14.30
2014,10,19,03,25,14.20
2014,10,19,03,26,14.20
2014,10,19,03,27,14.20
2014,10,19,03,28,14.20
2014,10,19,03,29,14.20
2014,10,19,03,30,14.20
2014,10,19,03,31,14.20
2014,10,19,03,32,14.20
2014,10,19,03,33,14.30
2014,10,19,03,34,14.20
2014,10,19,03,35,14.20
2014,10,19,03,36,14.30
2014,10,19,03,37,14.30
2014,10,19,03,38,14.20
2014,10,19,03,39,14.20
2014,10,19,03,40,14.20
2014,10,19,03,41,14.20
2014,10,19,03,42,14.20
2014,10,19,03,43,14.20
2014,10,19,03,44,14.20
2014,10,19,03,45,14.20
2014,10,19,03,46,14.20
2014,10,19,03,47,14.20
2014,10,19,03,48,14.20
2014,10,19,03,49,14.20
2014,10,19,03,50,14.20
2014,10,19,03,51,14.20
2014,10,19,03,52,14.20
2014,10,19,03,53,14.20
2014,10,19,03,54,14.20
2014,10,19,03,55,14.20
2014,10,19,03,56,14.20
2014,10,19,03,57,14.20
2014,10,19,03,58,14.20
2014,10,19,03,59,14.20
2014,10,19,04,00,14.20
2014,10,19,04,01,14.20
2014,10,19,04,02,14.20
2014,10,19,04,03,14.20
2014,10,19,04,04,14.20
2014,10,19,04,05,14.20
2014,10,19,04,06,14.20
2014,10,19,04,07,14.20
2014,10,19,04,08,14.20
2014,10,19,04,09,14.20
2014,10,19,04,10,14.20
2014,10,19,04,11,14.20
2014,10,19,04,12,14.20
2014,10,19,04,13,14.20
2014,10,19,04,14,14.20
2014,10,19,04,15,14.20
2014,10,19,04,16,14.20
2014,10,19,04,17,14.20
2014,10,19,04,18,14.20
2014,10,19,04,19,14.20
2014,10,19,04,20,14.20
2014,10,19,04,21,14.20
2014,10,19,04,22,14.20
2014,10,19,04,23,14.20
2014,10,19,04,24,14.20
2014,10,19,04,25,14.20
2014,10,19,04,26,14.20
2014,10,19,04,27,14.20
2014,10,19,04,28,14.20
2014,10,19,04,29,14.20
2014,10,19,04,30,14.20
2014,10,19,04,31,14.20
2014,10,19,04,32,14.10
2014,10,19,04,33,14.10
2014,10,19,04,34,14.10
2014,10,19,04,35,14.10
2014,10,19,04,36,14.10
2014,10,19,04,37,14.10
2014,10,19,04,38,14.10
2014,10,19,04,39,14.00
2014,10,19,04,40,14.00
2014,10,19,04,41,14.00
2014,10,19,04,42,14.00
2014,10,19,04,43,13.90
2014,10,19,04,44,13.90
2014,10,19,04,45,13.90
2014,10,19,04,46,13.90
2014,10,19,04,47,13.90
2014,10,19,04,48,13.90
2014,10,19,04,49,13.90
2014,10,19,04,50,13.90
2014,10,19,04,51,13.90
2014,10,19,04,52,13.90
2014,10,19,04,53,13.90
2014,10,19,04,54,13.90
2014,10,19,04,55,13.80
2014,10,19,04,56,13.80
2014,10,19,04,57,13.80
2014,10,19,04,58,13.80
2014,10,19,04,59,13.80
2014,10,19,05,00,13.80
2014,10,19,05,01,13.80
2014,10,19,05,02,13.80
2014,10,19,05,03,13.80
2014,10,19,05,04,13.90
2014,10,19,05,05,13.80
2014,10,19,05,06,13.80
2014,10,19,05,07,13.80
2014,10,19,05,08,13.80
2014,10,19,05,09,13.80
2014,10,19,05,10,13.80
2014,10,19,05,11,13.80
2014,10,19,05,12,13.80
2014,10,19,05,13,13.70
2014,10,19,05,14,13.70
2014,10,19,05,15,13.70
2014,10,19,05,16,13.70
2014,10,19,05,17,13.70
2014,10,19,05,18,13.70
2014,10,19,05,19,13.70
2014,10,19,05,20,13.60
2014,10,19,05,21,13.60
2014,10,19,05,22,13.60
2014,10,19,05,23,13.60
2014,10,19,05,24,13.60
2014,10,19,05,25,13.60
2014,10,19,05,26,13.60
2014,10,19,05,27,13.60
2014,10,19,05,28,13.60
2014,10,19,05,29,13.60
2014,10,19,05,30,13.60
2014,10,19,05,31,13.60
2014,10,19,05,32,13.60
2014,10,19,05,33,13.60
2014,10,19,05,34,13.50
2014,10,19,05,35,13.50
2014,10,19,05,36,13.50
2014,10,19,05,37,13.50
2014,10,19,05,38,13.40
2014,10,19,05,39,13.40
2014,10,19,05,40,13.40
2014,10,19,05,41,13.40
2014,10,19,05,42,13.40
2014,10,19,05,43,13.40
2014,10,19,05,44,13.30
2014,10,19,05,45,13.30
2014,10,19,05,46,13.30
2014,10,19,05,47,13.20
2014,10,19,05,48,13.20
2014,10,19,05,49,13.20
2014,10,19,05,50,13.20
2014,10,19,05,51,13.20
2014,10,19,05,52,13.20
2014,10,19,05,53,13.20
2014,10,19,05,54,13.20
2014,10,19,05,55,13.20
2014,10,19,05,56,13.20
2014,10,19,05,57,13.20
2014,10,19,05,58,13.10
2014,10,19,05,59,13.10
2014,10,19,06,00,13.10
2014,10,19,06,01,13.10
2014,10,19,06,02,13.10
2014,10,19,06,03,13.10
2014,10,19,06,04,13.10
2014,10,19,06,05,13.10
2014,10,19,06,06,13.10
2014,10,19,06,07,13.10
2014,10,19,06,08,13.10
2014,10,19,06,09,13.10
2014,10,19,06,10,13.10
2014,10,19,06,11,13.10
2014,10,19,06,12,13.10
2014,10,19,06,13,13.10
2014,10,19,06,14,13.10
2014,10,19,06,15,13.10
2014,10,19,06,16,13.10
2014,10,19,06,17,13.10
2014,10,19,06,18,13.10
2014,10,19,06,19,13.10
2014,10,19,06,20,13.10
2014,10,19,06,21,13.10
2014,10,19,06,22,13.10
2014,10,19,06,23,13.10
2014,10,19,06,24,13.10
2014,10,19,06,25,13.10
2014,10,19,06,26,13.10
2014,10,19,06,27,13.10
2014,10,19,06,28,13.10
2014,10,19,06,29,13.10
2014,10,19,06,30,13.10
2014,10,19,06,31,13.10
2014,10,19,06,32,13.10
2014,10,19,06,33,13.10
2014,10,19,06,34,13.10
2014,10,19,06,35,13.10
2014,10,19,06,36,13.10
2014,10,19,06,37,13.10
2014,10,19,06,38,13.10
2014,10,19,06,39,13.00
2014,10,19,06,40,13.00
2014,10,19,06,41,13.00
2014,10,19,06,42,13.00
2014,10,19,06,43,13.00
2014,10,19,06,44,13.00
2014,10,19,06,45,13.00
2014,10,19,06,46,12.90
2014,10,19,06,47,12.90
2014,10,19,06,48,12.90
2014,10,19,06,49,12.90
2014,10,19,06,50,12.90
2014,10,19,06,51,12.90
2014,10,19,06,52,12.80
2014,10,19,06,53,12.80
2014,10,19,06,54,12.80
2014,10,19,06,55,12.80
2014,10,19,06,56,12.80
2014,10,19,06,57,12.80
2014,10,19,06,58,12.70
2014,10,19,06,59,12.70
2014,10,19,07,00,12.70
2014,10,19,07,01,12.70
2014,10,19,07,02,12.60
2014,10,19,07,03,12.60
2014,10,19,07,04,12.60
2014,10,19,07,05,12.60
2014,10,19,07,06,12.60
2014,10,19,07,07,12.50
2014,10,19,07,08,12.50
2014,10,19,07,09,12.50
2014,10,19,07,10,12.50
2014,10,19,07,11,12.50
2014,10,19,07,12,12.50
2014,10,19,07,13,12.50
2014,10,19,07,14,12.50
2014,10,19,07,15,12.40
2014,10,19,07,16,12.50
2014,10,19,07,17,12.40
2014,10,19,07,18,12.40
2014,10,19,07,19,12.40
2014,10,19,07,20,12.40
2014,10,19,07,21,12.40
2014,10,19,07,22,12.40
2014,10,19,07,23,12.40
2014,10,19,07,24,12.30
2014,10,19,07,25,12.30
2014,10,19,07,26,12.30
2014,10,19,07,27,12.30
2014,10,19,07,28,12.20
2014,10,19,07,29,12.20
2014,10,19,07,30,12.10
2014,10,19,07,31,12.10
2014,10,19,07,32,12.10
2014,10,19,07,33,12.10
2014,10,19,07,34,12.10
2014,10,19,07,35,12.10
2014,10,19,07,36,12.10
2014,10,19,07,37,12.10
2014,10,19,07,38,12.10
2014,10,19,07,39,12.10
2014,10,19,07,40,12.10
2014,10,19,07,41,12.10
2014,10,19,07,42,12.10
2014,10,19,07,43,12.10
2014,10,19,07,44,12.10
2014,10,19,07,45,12.00
2014,10,19,07,46,12.00
2014,10,19,07,47,12.00
2014,10,19,07,48,12.00
2014,10,19,07,49,12.00
2014,10,19,07,50,11.90
2014,10,19,07,51,12.00
2014,10,19,07,52,12.00
2014,10,19,07,53,12.00
2014,10,19,07,54,12.00
2014,10,19,07,55,12.00
2014,10,19,07,56,12.00
2014,10,19,07,57,12.00
2014,10,19,07,58,12.00
2014,10,19,07,59,11.90
2014,10,19,08,00,11.90
2014,10,19,08,01,11.90
2014,10,19,08,02,11.90
2014,10,19,08,03,11.90
2014,10,19,08,04,11.90
2014,10,19,08,05,11.90
2014,10,19,08,06,11.80
2014,10,19,08,07,11.80
2014,10,19,08,08,11.80
2014,10,19,08,09,11.70
2014,10,19,08,10,11.70
2014,10,19,08,11,11.70
2014,10,19,08,12,11.70
2014,10,19,08,13,11.70
2014,10,19,08,14,11.70
2014,10,19,08,15,11.70
2014,10,19,08,16,11.70
2014,10,19,08,17,11.70
2014,10,19,08,18,11.70
2014,10,19,08,19,11.70
2014,10,19,08,20,11.60
2014,10,19,08,21,11.50
2014,10,19,08,22,11.50
2014,10,19,08,23,11.40
2014,10,19,08,24,11.40
2014,10,19,08,25,11.30
2014,10,19,08,26,11.30
2014,10,19,08,27,11.30
2014,10,19,08,28,11.30
2014,10,19,08,29,11.30
2014,10,19,08,30,11.30
2014,10,19,08,31,11.30
2014,10,19,08,32,11.30
2014,10,19,08,33,11.30
2014,10,19,08,34,11.30
2014,10,19,08,35,11.40
2014,10,19,08,36,11.40
2014,10,19,08,37,11.50
2014,10,19,08,38,11.50
2014,10,19,08,39,11.50
2014,10,19,08,40,11.50
2014,10,19,08,41,11.50
2014,10,19,08,42,11.60
2014,10,19,08,43,11.60
2014,10,19,08,44,11.60
2014,10,19,08,45,11.60
2014,10,19,08,46,11.60
2014,10,19,08,47,11.60
2014,10,19,08,48,11.60
2014,10,19,08,49,11.60
2014,10,19,08,50,11.70
2014,10,19,08,51,11.70
2014,10,19,08,52,11.70
2014,10,19,08,53,11.80
2014,10,19,08,54,11.80
2014,10,19,08,55,11.80
2014,10,19,08,56,11.90
2014,10,19,08,57,12.00
2014,10,19,08,58,12.10
2014,10,19,08,59,12.10
2014,10,19,09,00,12.20
2014,10,19,09,01,12.20
2014,10,19,09,02,12.20
2014,10,19,09,03,12.30
2014,10,19,09,04,12.30
2014,10,19,09,05,12.30
2014,10,19,09,06,12.40
2014,10,19,09,07,12.40
2014,10,19,09,08,12.50
2014,10,19,09,09,12.60
2014,10,19,09,10,12.60
2014,10,19,09,11,12.70
2014,10,19,09,12,12.70
2014,10,19,09,13,12.70
2014,10,19,09,14,12.80
2014,10,19,09,15,12.80
2014,10,19,09,16,12.80
2014,10,19,09,17,12.90
2014,10,19,09,18,12.90
2014,10,19,09,19,12.90
2014,10,19,09,20,12.90
2014,10,19,09,21,13.00
2014,10,19,09,22,13.00
2014,10,19,09,23,13.10
2014,10,19,09,24,13.10
2014,10,19,09,25,13.10
2014,10,19,09,26,13.10
2014,10,19,09,27,13.10
2014,10,19,09,28,13.10
2014,10,19,09,29,13.10
2014,10,19,09,30,13.10
2014,10,19,09,31,13.10
2014,10,19,09,32,13.10
2014,10,19,09,33,13.10
2014,10,19,09,34,13.10
2014,10,19,09,35,13.20
2014,10,19,09,36,13.20
2014,10,19,09,37,13.20
2014,10,19,09,38,13.20
2014,10,19,09,39,13.30
2014,10,19,09,40,13.30
2014,10,19,09,41,13.30
2014,10,19,09,42,13.30
2014,10,19,09,43,13.30
2014,10,19,09,44,13.30
2014,10,19,09,45,13.30
2014,10,19,09,46,13.30
2014,10,19,09,47,13.30
2014,10,19,09,48,13.30
2014,10,19,09,49,13.30
2014,10,19,09,50,13.30
2014,10,19,09,51,13.30
2014,10,19,09,52,13.30
2014,10,19,09,53,13.30
2014,10,19,09,54,13.40
2014,10,19,09,55,13.40
2014,10,19,09,56,13.40
2014,10,19,09,57,13.40
2014,10,19,09,58,13.40
2014,10,19,09,59,13.40
2014,10,19,10,00,13.40
2014,10,19,10,01,13.40
2014,10,19,10,02,13.40
2014,10,19,10,03,13.40
2014,10,19,10,04,13.40
2014,10,19,10,05,13.40
2014,10,19,10,06,13.50
2014,10,19,10,07,13.50
2014,10,19,10,08,13.50
2014,10,19,10,09,13.50
2014,10,19,10,10,13.60
2014,10,19,10,11,13.60
2014,10,19,10,12,13.70
2014,10,19,10,13,13.70
2014,10,19,10,14,13.70
2014,10,19,10,15,13.80
2014,10,19,10,16,13.80
2014,10,19,10,17,13.90
2014,10,19,10,18,13.90
2014,10,19,10,19,14.00
2014,10,19,10,20,14.10
2014,10,19,10,21,14.20
2014,10,19,10,22,14.20
2014,10,19,10,23,14.30
2014,10,19,10,24,14.30
2014,10,19,10,25,14.40
2014,10,19,10,26,14.50
2014,10,19,10,27,14.60
2014,10,19,10,28,14.60
2014,10,19,10,29,14.70
2014,10,19,10,30,14.70
2014,10,19,10,31,14.70
2014,10,19,10,32,14.70
2014,10,19,10,33,14.70
2014,10,19,10,34,14.70
2014,10,19,10,35,14.80
2014,10,19,10,36,14.80
2014,10,19,10,37,14.80
2014,10,19,10,38,14.80
2014,10,19,10,39,14.90
2014,10,19,10,40,14.90
2014,10,19,10,41,14.90
2014,10,19,10,42,14.90
2014,10,19,10,43,14.90
2014,10,19,10,44,14.90
2014,10,19,10,45,15.00
2014,10,19,10,46,15.00
2014,10,19,10,47,15.10
2014,10,19,10,48,15.10
2014,10,19,10,49,15.20
2014,10,19,10,50,15.20
2014,10,19,10,51,15.30
2014,10,19,10,52,15.40
2014,10,19,10,53,15.40
2014,10,19,10,54,15.50
2014,10,19,10,55,15.60
2014,10,19,10,56,15.60
2014,10,19,10,57,15.70
2014,10,19,10,58,15.80
2014,10,19,10,59,15.90
2014,10,19,11,00,15.90
2014,10,19,11,01,16.00
2014,10,19,11,02,16.00
2014,10,19,11,03,16.00
2014,10,19,11,04,16.10
2014,10,19,11,05,16.10
2014,10,19,11,06,16.20
2014,10,19,11,07,16.20
2014,10,19,11,08,16.30
2014,10,19,11,09,16.40
2014,10,19,11,10,16.50
2014,10,19,11,11,16.60
2014,10,19,11,12,16.80
2014,10,19,11,13,16.90
2014,10,19,11,14,17.10
2014,10,19,11,15,17.20
2014,10,19,11,16,17.40
2014,10,19,11,17,17.50
2014,10,19,11,18,17.70
2014,10,19,11,19,17.80
2014,10,19,11,20,17.80
2014,10,19,11,21,17.80
2014,10,19,11,22,17.90
2014,10,19,11,23,17.90
2014,10,19,11,24,18.00
2014,10,19,11,25,18.20
2014,10,19,11,26,18.30
2014,10,19,11,27,18.40
2014,10,19,11,28,18.40
2014,10,19,11,29,18.40
2014,10,19,11,30,18.50
2014,10,19,11,31,18.50
2014,10,19,11,32,18.60
2014,10,19,11,33,18.60
2014,10,19,11,34,18.60
2014,10,19,11,35,18.50
2014,10,19,11,36,18.40
2014,10,19,11,37,18.30
2014,10,19,11,38,18.20
2014,10,19,11,39,18.10
2014,10,19,11,40,18.10
2014,10,19,11,41,18.10
2014,10,19,11,42,18.10
2014,10,19,11,43,18.10
2014,10,19,11,44,18.10
2014,10,19,11,45,18.10
2014,10,19,11,46,18.10
2014,10,19,11,47,18.10
2014,10,19,11,48,18.10
2014,10,19,11,49,18.10
2014,10,19,11,50,18.10
2014,10,19,11,51,18.10
2014,10,19,11,52,18.00
2014,10,19,11,53,17.90
2014,10,19,11,54,17.90
2014,10,19,11,55,17.80
2014,10,19,11,56,17.70
2014,10,19,11,57,17.60
2014,10,19,11,58,17.50
2014,10,19,11,59,17.40
2014,10,19,12,00,17.30
2014,10,19,12,01,17.30
2014,10,19,12,02,17.30
2014,10,19,12,03,17.30
2014,10,19,12,04,17.30
2014,10,19,12,05,17.30
2014,10,19,12,06,17.20
2014,10,19,12,07,17.20
2014,10,19,12,08,17.20
2014,10,19,12,09,17.20
2014,10,19,12,10,17.20
2014,10,19,12,11,17.20
2014,10,19,12,12,17.20
2014,10,19,12,13,17.20
2014,10,19,12,14,17.20
2014,10,19,12,15,17.30
2014,10,19,12,16,17.30
2014,10,19,12,17,17.30
2014,10,19,12,18,17.30
2014,10,19,12,19,17.30
2014,10,19,12,20,17.40
2014,10,19,12,21,17.40
2014,10,19,12,22,17.30
2014,10,19,12,23,17.30
2014,10,19,12,24,17.20
2014,10,19,12,25,17.20
2014,10,19,12,26,17.10
2014,10,19,12,27,17.10
2014,10,19,12,28,17.10
2014,10,19,12,29,17.10
2014,10,19,12,30,17.10
2014,10,19,12,31,17.10
2014,10,19,12,32,17.20
2014,10,19,12,33,17.20
2014,10,19,12,34,17.30
2014,10,19,12,35,17.40
2014,10,19,12,36,17.40
2014,10,19,12,37,17.50
2014,10,19,12,38,17.50
2014,10,19,12,39,17.60
2014,10,19,12,40,17.60
2014,10,19,12,41,17.50
2014,10,19,12,42,17.40
2014,10,19,12,43,17.40
2014,10,19,12,44,17.40
2014,10,19,12,45,17.40
2014,10,19,12,46,17.40
2014,10,19,12,47,17.50
2014,10,19,12,48,17.50
2014,10,19,12,49,17.60
2014,10,19,12,50,17.70
2014,10,19,12,51,17.80
2014,10,19,12,52,18.00
2014,10,19,12,53,18.20
2014,10,19,12,54,18.30
2014,10,19,12,55,18.40
2014,10,19,12,56,18.50
2014,10,19,12,57,18.60
2014,10,19,12,58,18.60
2014,10,19,12,59,18.70
2014,10,19,13,00,18.70
2014,10,19,13,01,18.70
2014,10,19,13,02,18.80
2014,10,19,13,03,18.80
2014,10,19,13,04,18.80
2014,10,19,13,05,18.80
2014,10,19,13,06,18.90
2014,10,19,13,07,19.00
2014,10,19,13,08,19.00
2014,10,19,13,09,19.10
2014,10,19,13,10,19.20
2014,10,19,13,11,19.30
2014,10,19,13,12,19.40
2014,10,19,13,13,19.50
2014,10,19,13,14,19.50
2014,10,19,13,15,19.60
2014,10,19,13,16,19.60
2014,10,19,13,17,19.50
2014,10,19,13,18,19.40
2014,10,19,13,19,19.30
2014,10,19,13,20,19.10
2014,10,19,13,21,19.00
2014,10,19,13,22,19.00
2014,10,19,13,23,19.00
2014,10,19,13,24,19.00
2014,10,19,13,25,19.00
2014,10,19,13,26,19.10
2014,10,19,13,27,19.10
2014,10,19,13,28,19.20
2014,10,19,13,29,19.20
2014,10,19,13,30,19.20
2014,10,19,13,31,19.20
2014,10,19,13,32,19.10
2014,10,19,13,33,19.10
2014,10,19,13,34,19.10
2014,10,19,13,35,19.10
2014,10,19,13,36,19.20
2014,10,19,13,37,19.20
2014,10,19,13,38,19.10
2014,10,19,13,39,19.00
2014,10,19,13,40,19.00
2014,10,19,13,41,18.90
2014,10,19,13,42,18.90
2014,10,19,13,43,18.90
2014,10,19,13,44,18.90
2014,10,19,13,45,18.90
2014,10,19,13,46,18.90
2014,10,19,13,47,19.00
2014,10,19,13,48,19.10
2014,10,19,13,49,19.20
2014,10,19,13,50,19.30
2014,10,19,13,51,19.40
2014,10,19,13,52,19.40
2014,10,19,13,53,19.40
2014,10,19,13,54,19.50
2014,10,19,13,55,19.50
2014,10,19,13,56,19.50
2014,10,19,13,57,19.50
2014,10,19,13,58,19.50
2014,10,19,13,59,19.50
2014,10,19,14,00,19.50
2014,10,19,14,01,19.50
2014,10,19,14,02,19.50
2014,10,19,14,03,19.40
2014,10,19,14,04,19.40
2014,10,19,14,05,19.30
2014,10,19,14,06,19.30
2014,10,19,14,07,19.30
2014,10,19,14,08,19.30
2014,10,19,14,09,19.30
2014,10,19,14,10,19.40
2014,10,19,14,11,19.40
2014,10,19,14,12,19.40
2014,10,19,14,13,19.30
2014,10,19,14,14,19.30
2014,10,19,14,15,19.20
2014,10,19,14,16,19.20
2014,10,19,14,17,19.10
2014,10,19,14,18,19.10
2014,10,19,14,19,19.10
2014,10,19,14,20,19.10
2014,10,19,14,21,19.10
2014,10,19,14,22,19.20
2014,10,19,14,23,19.20
2014,10,19,14,24,19.20
2014,10,19,14,25,19.20
2014,10,19,14,26,19.10
2014,10,19,14,27,19.10
2014,10,19,14,28,19.20
2014,10,19,14,29,19.20
2014,10,19,14,30,19.20
2014,10,19,14,31,19.20
2014,10,19,14,32,19.20
2014,10,19,14,33,19.20
2014,10,19,14,34,19.20
2014,10,19,14,35,19.20
2014,10,19,14,36,19.20
2014,10,19,14,37,19.10
2014,10,19,14,38,19.10
2014,10,19,14,39,19.10
2014,10,19,14,40,19.10
2014,10,19,14,41,19.00
2014,10,19,14,42,18.90
2014,10,19,14,43,18.80
2014,10,19,14,44,18.80
2014,10,19,14,45,18.70
2014,10,19,14,46,18.70
2014,10,19,14,47,18.60
2014,10,19,14,48,18.50
2014,10,19,14,49,18.50
2014,10,19,14,50,18.40
2014,10,19,14,51,18.40
2014,10,19,14,52,18.30
2014,10,19,14,53,18.20
2014,10,19,14,54,18.10
2014,10,19,14,55,18.00
2014,10,19,14,56,17.90
2014,10,19,14,57,17.90
2014,10,19,14,58,17.80
2014,10,19,14,59,17.80
2014,10,19,15,00,17.80
2014,10,19,15,01,17.80
2014,10,19,15,02,17.80
2014,10,19,15,03,17.70
2014,10,19,15,04,17.70
2014,10,19,15,05,17.70
2014,10,19,15,06,17.60
2014,10,19,15,07,17.60
2014,10,19,15,08,17.60
2014,10,19,15,09,17.50
2014,10,19,15,10,17.50
2014,10,19,15,11,17.50
2014,10,19,15,12,17.50
2014,10,19,15,13,17.60
2014,10,19,15,14,17.60
2014,10,19,15,15,17.70
2014,10,19,15,16,17.70
2014,10,19,15,17,17.80
2014,10,19,15,18,17.80
2014,10,19,15,19,17.80
2014,10,19,15,20,17.80
2014,10,19,15,21,17.80
2014,10,19,15,22,17.70
2014,10,19,15,23,17.60
2014,10,19,15,24,17.60
2014,10,19,15,25,17.50
2014,10,19,15,26,17.50
2014,10,19,15,27,17.40
2014,10,19,15,28,17.30
2014,10,19,15,29,17.30
2014,10,19,15,30,17.30
2014,10,19,15,31,17.30
2014,10,19,15,32,17.30
2014,10,19,15,33,17.30
2014,10,19,15,34,17.30
2014,10,19,15,35,17.30
2014,10,19,15,36,17.30
2014,10,19,15,37,17.20
2014,10,19,15,38,17.20
2014,10,19,15,39,17.20
2014,10,19,15,40,17.20
2014,10,19,15,41,17.10
2014,10,19,15,42,17.10
2014,10,19,15,43,17.10
2014,10,19,15,44,17.20
2014,10,19,15,45,17.20
2014,10,19,15,46,17.20
2014,10,19,15,47,17.20
2014,10,19,15,48,17.30
2014,10,19,15,49,17.30
2014,10,19,15,50,17.40
2014,10,19,15,51,17.40
2014,10,19,15,52,17.50
2014,10,19,15,53,17.50
2014,10,19,15,54,17.50
2014,10,19,15,55,17.60
2014,10,19,15,56,17.60
2014,10,19,15,57,17.60
2014,10,19,15,58,17.60
2014,10,19,15,59,17.60
2014,10,19,16,00,17.60
2014,10,19,16,01,17.60
2014,10,19,16,02,17.60
2014,10,19,16,03,17.60
2014,10,19,16,04,17.60
2014,10,19,16,05,17.60
2014,10,19,16,06,17.60
2014,10,19,16,07,17.60
2014,10,19,16,08,17.60
2014,10,19,16,09,17.60
2014,10,19,16,10,17.60
2014,10,19,16,11,17.60
2014,10,19,16,12,17.60
2014,10,19,16,13,17.60
2014,10,19,16,14,17.70
2014,10,19,16,15,17.70
2014,10,19,16,16,17.70
2014,10,19,16,17,17.70
2014,10,19,16,18,17.70
2014,10,19,16,19,17.70
2014,10,19,16,20,17.70
2014,10,19,16,21,17.70
2014,10,19,16,22,17.70
2014,10,19,16,23,17.70
2014,10,19,16,24,17.70
2014,10,19,16,25,17.70
2014,10,19,16,26,17.70
2014,10,19,16,27,17.70
2014,10,19,16,28,17.70
2014,10,19,16,29,17.70
2014,10,19,16,30,17.70
2014,10,19,16,31,17.70
2014,10,19,16,32,17.70
2014,10,19,16,33,17.70
2014,10,19,16,34,17.70
2014,10,19,16,35,17.80
2014,10,19,16,36,17.80
2014,10,19,16,37,17.80
2014,10,19,16,38,17.80
2014,10,19,16,39,17.80
2014,10,19,16,40,17.80
2014,10,19,16,41,17.70
2014,10,19,16,42,17.70
2014,10,19,16,43,17.70
2014,10,19,16,44,17.70
2014,10,19,16,45,17.70
2014,10,19,16,46,17.70
2014,10,19,16,47,17.70
2014,10,19,16,48,17.60
2014,10,19,16,49,17.60
2014,10,19,16,50,17.60
2014,10,19,16,51,17.60
2014,10,19,16,52,17.60
2014,10,19,16,53,17.60
2014,10,19,16,54,17.60
2014,10,19,16,55,17.50
2014,10,19,16,56,17.50
2014,10,19,16,57,17.50
2014,10,19,16,58,17.50
2014,10,19,16,59,17.50
2014,10,19,17,00,17.50
2014,10,19,17,01,17.50
2014,10,19,17,02,17.50
2014,10,19,17,03,17.50
2014,10,19,17,04,17.50
2014,10,19,17,05,17.50
2014,10,19,17,06,17.50
2014,10,19,17,07,17.50
2014,10,19,17,08,17.50
2014,10,19,17,09,17.50
2014,10,19,17,10,17.60
2014,10,19,17,11,17.60
2014,10,19,17,12,17.50
2014,10,19,17,13,17.50
2014,10,19,17,14,17.40
2014,10,19,17,15,17.40
2014,10,19,17,16,17.30
2014,10,19,17,17,17.30
2014,10,19,17,18,17.30
2014,10,19,17,19,17.30